Total_Precipitation_Accumulation
0.11 0.12 0.12 0.10 0.08 0.08 0.08 0.08 0.09 0.09 0.10 0.14 0.17 0.18 0.23 0.24 0.21 0.20 0.17 0.14 0.11 0.15 0.26 0.36 0.51 0.73 0.94 1.04 1.07 1.00 0.95 0.87 0.77 0.70 0.69 0.72 0.83 0.93 1.01 0.97 1.01 1.06 1.04
0.08 0.08 0.08 0.08 0.06 0.05 0.05 0.05 0.05 0.06 0.07 0.09 0.10 0.12 0.16 0.16 0.16 0.18 0.19 0.19 0.16 0.16 0.24 0.29 0.36 0.51 0.79 1.02 1.12 1.09 1.04 1.01 0.98 0.92 0.82 0.79 0.83 0.91 1.01 1.08 0.94 0.89 0.87
0.08 0.07 0.06 0.06 0.05 0.05 0.05 0.04 0.04 0.04 0.05 0.06 0.08 0.10 0.11 0.12 0.13 0.16 0.20 0.22 0.22 0.20 0.22 0.32 0.36 0.42 0.60 0.86 1.10 1.28 1.16 1.11 1.16 1.15 1.00 0.90 0.85 0.91 0.95 1.08 1.11 1.02 0.92
0.10 0.10 0.10 0.08 0.05 0.05 0.07 0.08 0.07 0.07 0.07 0.08 0.10 0.13 0.13 0.14 0.13 0.16 0.22 0.22 0.24 0.23 0.22 0.27 0.37 0.43 0.54 0.69 0.90 1.24 1.37 1.32 1.31 1.30 1.23 1.12 0.97 0.97 1.01 1.07 1.16 1.19 1.14
0.12 0.11 0.12 0.12 0.11 0.11 0.12 0.14 0.12 0.14 0.13 0.11 0.12 0.16 0.18 0.21 0.23 0.22 0.27 0.28 0.27 0.25 0.25 0.26 0.32 0.35 0.45 0.60 0.79 1.06 1.36 1.51 1.49 1.49 1.44 1.36 1.22 1.07 1.08 1.13 1.19 1.31 1.34
0.13 0.13 0.13 0.12 0.14 0.16 0.18 0.19 0.16 0.15 0.16 0.17 0.22 0.24 0.28 0.30 0.27 0.22 0.26 0.32 0.32 0.29 0.32 0.31 0.30 0.29 0.31 0.41 0.60 0.86 1.15 1.43 1.57 1.61 1.65 1.63 1.52 1.36 1.19 1.17 1.19 1.33 1.48
0.15 0.14 0.13 0.13 0.13 0.12 0.12 0.12 0.13 0.13 0.12 0.13 0.18 0.20 0.20 0.23 0.22 0.19 0.22 0.30 0.38 0.42 0.43 0.44 0.42 0.37 0.34 0.34 0.35 0.50 0.77 1.13 1.46 1.62 1.71 1.76 1.73 1.64 1.48 1.34 1.29 1.34 1.49
0.19 0.16 0.14 0.12 0.12 0.10 0.08 0.06 0.06 0.09 0.07 0.07 0.14 0.19 0.16 0.15 0.13 0.13 0.16 0.23 0.32 0.41 0.46 0.49 0.51 0.51 0.46 0.41 0.30 0.29 0.41 0.70 1.11 1.52 1.75 1.87 1.99 1.98 1.84 1.65 1.51 1.50 1.56
0.20 0.16 0.14 0.13 0.12 0.11 0.09 0.07 0.06 0.07 0.08 0.06 0.09 0.23 0.30 0.22 0.14 0.07 0.09 0.13 0.18 0.22 0.29 0.36 0.44 0.50 0.52 0.51 0.43 0.33 0.30 0.46 0.74 1.15 1.61 1.93 2.17 2.39 2.34 2.07 1.86 1.76 1.73
0.20 0.17 0.15 0.13 0.13 0.12 0.12 0.10 0.07 0.07 0.09 0.11 0.09 0.12 0.20 0.24 0.30 0.16 0.04 0.04 0.05 0.08 0.11 0.17 0.24 0.32 0.41 0.46 0.50 0.51 0.46 0.43 0.64 0.87 1.24 1.73 2.21 2.63 2.90 2.70 2.30 2.00 1.90
0.23 0.20 0.17 0.15 0.14 0.14 0.13 0.12 0.10 0.10 0.11 0.14 0.15 0.14 0.14 0.13 0.18 0.29 0.14 0.02 0.02 0.03 0.04 0.08 0.12 0.18 0.26 0.35 0.43 0.51 0.58 0.57 0.70 0.86 1.03 1.38 1.89 2.55 3.05 3.10 2.78 2.40 2.11
0.28 0.24 0.21 0.18 0.14 0.13 0.14 0.13 0.13 0.13 0.13 0.14 0.16 0.18 0.21 0.25 0.21 0.27 0.25 0.09 0.03 0.02 0.03 0.04 0.07 0.13 0.21 0.30 0.39 0.53 0.61 0.65 0.73 0.86 0.88 1.06 1.41 1.98 2.71 3.14 3.09 2.82 2.51
0.31 0.28 0.25 0.22 0.18 0.15 0.14 0.16 0.18 0.18 0.18 0.20 0.19 0.20 0.21 0.22 0.24 0.31 0.35 0.20 0.09 0.03 0.02 0.04 0.06 0.11 0.19 0.26 0.32 0.43 0.49 0.54 0.61 0.72 0.76 0.75 0.88 1.30 2.03 2.83 3.26 3.21 2.99
0.28 0.27 0.27 0.25 0.22 0.19 0.18 0.19 0.20 0.22 0.24 0.25 0.24 0.24 0.25 0.23 0.26 0.31 0.38 0.42 0.31 0.10 0.03 0.03 0.04 0.09 0.15 0.19 0.26 0.34 0.35 0.40 0.45 0.55 0.64 0.66 0.66 0.77 1.20 2.00 2.85 3.38 3.37
0.31 0.30 0.31 0.31 0.29 0.27 0.27 0.27 0.27 0.26 0.27 0.28 0.29 0.30 0.32 0.30 0.29 0.29 0.33 0.44 0.61 0.45 0.13 0.03 0.05 0.08 0.12 0.16 0.22 0.27 0.27 0.33 0.38 0.43 0.51 0.59 0.62 0.65 0.80 1.14 1.87 2.74 3.39
0.34 0.35 0.36 0.36 0.34 0.33 0.34 0.38 0.36 0.33 0.32 0.31 0.33 0.36 0.37 0.36 0.34 0.33 0.35 0.37 0.50 0.62 0.39 0.08 0.07 0.10 0.14 0.16 0.23 0.26 0.25 0.31 0.35 0.39 0.41 0.45 0.54 0.63 0.72 0.87 1.17 1.86 2.64
0.37 0.37 0.37 0.38 0.38 0.37 0.39 0.41 0.41 0.41 0.42 0.39 0.39 0.42 0.41 0.40 0.44 0.43 0.42 0.43 0.44 0.53 0.54 0.17 0.08 0.10 0.19 0.25 0.25 0.24 0.24 0.25 0.28 0.35 0.39 0.40 0.45 0.53 0.63 0.73 0.89 1.26 1.94
0.38 0.40 0.40 0.40 0.40 0.41 0.45 0.48 0.47 0.46 0.49 0.51 0.51 0.50 0.48 0.48 0.49 0.50 0.54 0.54 0.50 0.48 0.56 0.37 0.14 0.13 0.18 0.26 0.29 0.28 0.25 0.23 0.24 0.30 0.35 0.41 0.44 0.49 0.57 0.66 0.77 0.91 1.29
0.48 0.49 0.50 0.50 0.48 0.49 0.56 0.58 0.59 0.58 0.55 0.57 0.59 0.63 0.63 0.62 0.61 0.59 0.62 0.64 0.60 0.53 0.54 0.53 0.31 0.19 0.21 0.27 0.33 0.33 0.30 0.29 0.27 0.31 0.33 0.39 0.45 0.50 0.53 0.59 0.68 0.78 0.89
0.61 0.62 0.63 0.61 0.60 0.64 0.83 0.89 0.77 0.72 0.66 0.63 0.64 0.68 0.73 0.78 0.79 0.80 0.84 0.82 0.78 0.75 0.66 0.62 0.48 0.35 0.33 0.34 0.41 0.41 0.37 0.34 0.36 0.36 0.35 0.35 0.40 0.47 0.50 0.50 0.50 0.56 0.71
0.75 0.74 0.73 0.70 0.67 0.77 1.12 1.27 1.03 0.89 0.81 0.75 0.70 0.72 0.74 0.83 0.98 1.13 1.24 1.17 1.02 1.00 0.93 0.86 0.73 0.57 0.48 0.50 0.57 0.53 0.53 0.44 0.44 0.47 0.44 0.36 0.34 0.33 0.38 0.46 0.51 0.54 0.61
0.84 0.84 0.80 0.73 0.66 0.75 1.09 1.24 1.02 0.83 0.70 0.69 0.67 0.62 0.63 0.69 0.78 0.90 1.06 1.08 1.05 1.17 1.23 1.14 1.00 0.85 0.65 0.59 0.68 0.77 0.81 0.77 0.65 0.52 0.52 0.49 0.43 0.42 0.39 0.39 0.50 0.55 0.63
0.68 0.68 0.69 0.65 0.56 0.58 0.93 1.07 0.86 0.59 0.46 0.49 0.50 0.48 0.47 0.50 0.58 0.57 0.68 0.74 0.80 0.90 1.07 1.20 1.23 1.02 0.84 0.75 0.89 1.02 1.02 0.99 0.78 0.64 0.72 0.77 0.65 0.57 0.51 0.52 0.58 0.56 0.63
0.55 0.52 0.48 0.46 0.45 0.48 0.81 1.01 0.80 0.43 0.35 0.38 0.42 0.44 0.43 0.43 0.49 0.62 0.69 0.63 0.56 0.58 0.76 0.96 1.16 1.09 0.99 1.00 1.18 1.37 1.42 1.39 1.13 0.89 0.85 1.00 0.87 0.78 0.71 0.65 0.63 0.57 0.58
0.43 0.44 0.42 0.38 0.34 0.33 0.60 0.96 0.83 0.46 0.40 0.39 0.40 0.45 0.46 0.41 0.49 0.66 0.73 0.67 0.54 0.50 0.55 0.76 0.98 1.11 1.18 1.31 1.51 1.75 1.83 1.85 1.69 1.34 1.11 1.12 1.04 0.95 0.92 0.88 0.79 0.70 0.62
0.35 0.34 0.37 0.37 0.34 0.30 0.41 0.79 0.91 0.52 0.42 0.38 0.36 0.41 0.56 0.55 0.56 0.62 0.66 0.69 0.67 0.53 0.45 0.47 0.53 0.64 0.78 0.92 1.21 1.49 1.65 1.78 1.76 1.68 1.37 1.27 1.26 1.21 1.29 1.07 0.86 0.72 0.63